Jackson, MI

4:25 AM EDT on October 23, 2019 (GMT -0400)
Jackson County-Reynolds

Weather History for KJXN - August, 2019

Change the Weather History Date:

Wednesday, August 28, 2019

  Actual Average Record
Temperature  
Mean Temperature 66 °F 68 °F  
Max Temperature 75 °F 79 °F 94 °F (1953)
Min Temperature 55 °F 57 °F 38 °F (1986)
Degree Days  
Heating Degree Days 0 1  
Month to date heating degree days 9 24  
Since 1 June heating degree days 67 90  
Since 1 July heating degree days 9 35  
Cooling Degree Days 0 4  
Month to date cooling degree days 149 152  
Year to date cooling degree days 554 517  
Since 1 June cooling degree days 544 480  
Growing Degree Days 16 (Base 50)    
Moisture  
Dew Point 54 °F    
Average Humidity 68    
Maximum Humidity 93    
Minimum Humidity 43    
Precipitation  
Precipitation 0.00 in 0.10 in 1.59 in (2013)
Month to date precipitation 0.82 3.13  
Year to date precipitation 21.01 20.58  
Sea Level Pressure  
Sea Level Pressure 29.89 in    
Wind  
Wind Speed 7 mph ()    
Max Wind Speed 23 mph    
Max Gust Speed 36 mph    
Visibility 10.0 miles    
Events      
T = Trace of Precipitation, MM = Missing Value Source: Averaged Metar Reports

Daily Weather History Graph

Daily Weather History Graph

Search for Another Location

Airport or City:

Astronomy

Aug. 28, 2019 Rise Set
Actual Time 6:58 AM EDT 8:18 PM EDT
Civil Twilight 6:29 AM EDT 8:47 PM EDT
Nautical Twilight 5:54 AM EDT 9:22 PM EDT
Astronomical Twilight 5:17 AM EDT 9:59 PM EDT
Moon 4:26 AM EDT (8/28) 7:32 PM EDT (8/28)
Length of Visible Light 14h 18m
Length of Day
13h 20m
Waning Crescent, 5% of the Moon is Illuminated
Aug 28
Waning Crescent
Aug 30
New
Sep 5
First Quarter
Sep 14
Full
Sep 21
Last Quarter

Hourly Weather History & Observations

Time (EDT) Temp. Dew Point Humidity Pressure Visibility Wind Dir Wind Speed Gust Speed Precip Events Conditions
12:56 AM 62.1 °F 57.9 °F 86% 29.86 in 10.0 mi SW 5.8 mph - N/A   Clear
1:56 AM 61.0 °F 57.0 °F 87% 29.86 in 10.0 mi SW 4.6 mph - N/A   Clear
2:56 AM 60.1 °F 55.9 °F 86% 29.85 in 10.0 mi WSW 4.6 mph - N/A   Clear
3:56 AM 57.9 °F 55.0 °F 90% 29.85 in 10.0 mi SW 5.8 mph - N/A   Clear
4:56 AM 57.0 °F 55.0 °F 93% 29.85 in 10.0 mi SSW 4.6 mph - N/A   Clear
5:56 AM 55.9 °F 53.1 °F 90% 29.86 in 10.0 mi SSW 4.6 mph - N/A   Clear
6:56 AM 57.0 °F 54.0 °F 89% 29.87 in 10.0 mi SSW 6.9 mph - N/A   Clear
7:56 AM 60.1 °F 55.9 °F 86% 29.88 in 10.0 mi SSW 8.1 mph - N/A   Clear
8:56 AM 64.0 °F 57.0 °F 78% 29.89 in 10.0 mi SW 8.1 mph - N/A   Clear
9:56 AM 66.9 °F 55.9 °F 68% 29.89 in 10.0 mi SW 12.7 mph 21.9 mph N/A   Clear
10:56 AM 69.1 °F 54.0 °F 58% 29.89 in 10.0 mi WSW 16.1 mph 27.6 mph N/A   Partly Cloudy
11:56 AM 71.1 °F 54.0 °F 55% 29.89 in 10.0 mi WSW 10.4 mph 29.9 mph N/A   Scattered Clouds
12:56 PM 72.0 °F 52.0 °F 49% 29.88 in 10.0 mi West 16.1 mph 35.7 mph N/A   Scattered Clouds
1:56 PM 73.0 °F 53.1 °F 49% 29.88 in 10.0 mi WSW 16.1 mph 27.6 mph N/A   Clear
2:56 PM 73.9 °F 52.0 °F 46% 29.87 in 10.0 mi WSW 15.0 mph 28.8 mph N/A   Scattered Clouds
3:56 PM 72.0 °F 50.0 °F 46% 29.88 in 10.0 mi WSW 12.7 mph 21.9 mph N/A   Mostly Cloudy
4:56 PM 73.9 °F 50.0 °F 43% 29.89 in 10.0 mi WSW 16.1 mph 34.5 mph N/A   Partly Cloudy
5:56 PM 71.1 °F 50.0 °F 47% 29.90 in 10.0 mi SW 17.3 mph 24.2 mph N/A   Clear
6:56 PM 70.0 °F 48.9 °F 47% 29.91 in 10.0 mi West 10.4 mph 17.3 mph N/A   Mostly Cloudy
7:56 PM 66.9 °F 50.0 °F 54% 29.92 in 10.0 mi West 5.8 mph - N/A   Overcast
8:56 PM 64.9 °F 53.1 °F 65% 29.94 in 10.0 mi WSW 3.5 mph - N/A   Overcast
9:56 PM 64.0 °F 53.1 °F 67% 29.95 in 10.0 mi SW 3.5 mph - N/A   Overcast
10:56 PM 61.0 °F 54.0 °F 78% 29.95 in 10.0 mi SSW 4.6 mph - N/A   Overcast
11:56 PM 60.1 °F 54.0 °F 80% 29.95 in 10.0 mi Calm Calm - N/A   Overcast